Flag Weather past 2 weeks in Bogota, Colombia

Now
50 °F

Scattered clouds.


Feels Like: 48 °F
Forecast: 48 / 66 °F
Wind: 5 mph from East

Location: Bogota / Eldorado

Current Time: Nov 23, 2014 at 6:18:26 AM

Latest Report: Nov 23, 2014 at 6:00 AM


Visibility: N/A

Pressure: 30.28 "Hg

Humidity: 94%

Dew point: 48 °F

Location of BogotaLocation

Historic Weather in Bogota — Graph

°F

Bogota temperature yesterday

Maximum temperature yesterday: 68 °F (at 12:00 PM)
Minimum temperature yesterday: 46 °F (at 4:00 AM)
Average temperature yesterday: 55 °F

Past Weeks' High & Low Weather Summary

 TemperatureHumidityPressure
High82 °F (Nov 16, 8:00 AM)100% (Nov 8, 6:00 AM)30.76 "Hg (Nov 8, 6:00 AM)
Low41 °F (Nov 15, 6:00 AM)43% (Nov 18, 10:00 AM)29.93 "Hg (Nov 16, 8:00 AM)
Average57 °F81%30.30 "Hg
* Reported Nov 8 5:00 AM — Nov 23 5:00 AM, Bogota, Weather by CustomWeather, © 2014

Note: Actual official high and low records may vary slightly from our data, if they occured in-between our weather recording intervals... More about our weather records

Advertising

Bogota weather history for previous 24 hours

 ConditionsComfort  
Time TempWeatherWind HumidityBarometerVisibility
5:00 AM
Nov 23
48 °FPassing clouds.5 mph94%30.76 "HgN/A
4:00 AM50 °FPassing clouds.5 mph94%30.26 "HgN/A
3:00 AM52 °FPassing clouds.7 mph88%30.27 "HgN/A
2:00 AM54 °FPassing clouds.7 mph88%30.29 "HgN/A
1:00 AM55 °FScattered showers. Passing clouds.5 mph88%30.30 "HgN/A
12:00 AM55 °FPassing clouds.5 mph88%30.32 "HgN/A
11:00 PM
Nov 22
55 °FPassing clouds.6 mph88%30.33 "HgN/A
10:00 PM55 °FScattered showers. Passing clouds.6 mph88%30.33 "HgN/A
9:00 PM55 °FPassing clouds.6 mph88%30.32 "HgN/A
8:00 PM54 °FScattered showers. Passing clouds.6 mph88%30.30 "HgN/A
7:00 PM54 °FScattered showers. Passing clouds.2 mph94%30.27 "HgN/A
6:00 PM54 °FScattered showers. Partly cloudy.3 mph94%30.24 "Hg5 mi
5:00 PMN/AScattered showers.3 mphN/A30.23 "Hg5 mi
4:00 PM55 °FThunderstorms. Broken clouds.5 mph94%30.22 "Hg2 mi
3:00 PM59 °FThunderstorms. Broken clouds.9 mph77%30.24 "Hg4 mi
2:00 PM64 °FThunderstorms. Scattered clouds.18 mph60%30.24 "HgN/A
1:00 PM66 °FScattered showers. Scattered clouds.9 mph52%30.27 "Hg6 mi
12:00 PM68 °FSleet. Scattered clouds.5 mph49%30.29 "HgN/A
11:00 AM64 °FSleet. Scattered clouds.6 mph56%30.32 "HgN/A
10:00 AM63 °FScattered clouds.3 mph73%30.34 "Hg5 mi
9:00 AM57 °FScattered clouds.5 mph82%30.35 "Hg5 mi
8:00 AM54 °FFog.3 mph94%30.35 "Hg3 mi
7:00 AM50 °FFog.3 mph94%30.33 "Hg0 mi
6:00 AM48 °FFog.2 mph100%30.31 "Hg0 mi
Weather by CustomWeather, © 2014

See weather overviewHow to use our weather pages